Home   Weather   Salalah   Past weeks

Flag for Oman Past Weather in Salalah, Oman — Yesterday and Last 2 Weeks

Now
82 °F

Passing clouds.


Feels Like: 85 °F
Forecast: 73 / 85 °F
Wind: 3 mph from East

Location: Salalah Airport

Current Time: Dec 7, 2016 at 10:34:15 pm

Latest Report: Dec 7, 2016 at 9:50 pm


Visibility: N/A

Pressure: 30.04 "Hg

Humidity: 58%

Dew Point: 66 °F

Location of SalalahLocation

Past Weather in Salalah — Graph

°F

Salalah Temperature Yesterday

Maximum temperature yesterday: 82 °F (at 10:50 am)
Minimum temperature yesterday: 70 °F (at 6:50 am)
Average temperature yesterday: 77 °F

High & Low Weather Summary for the Past Weeks

 TemperatureHumidityPressure
High91 °F (Dec 4, 9:50 am)84% (Nov 27, 7:50 pm)30.12 "Hg (Nov 27, 7:50 pm)
Low70 °F (Dec 2, 4:50 am)23% (Dec 4, 9:50 am)29.86 "Hg (Nov 24, 2:50 pm)
Average79 °F65%30.00 "Hg
* Reported Nov 22 8:50 pm — Dec 7 8:50 pm, Salalah, Weather by CustomWeather, © 2016

Note: Actual official high and low records may vary slightly from our data, if they occured in-between our weather recording intervals... More about our weather records

Advertising

Salalah Weather History for the Previous 24 Hours

Scroll right to see more
 ConditionsComfort  
Time TempWeatherWind HumidityBarometerVisibility
8:50 pm
Wed, Dec 7
82 °FPartly cloudy.2 mph58%30.04 "HgN/A
7:50 pm82 °FPartly cloudy.No wind58%30.01 "HgN/A
6:50 pm81 °FPartly cloudy.5 mph66%30.01 "HgN/A
5:50 pm84 °FPartly cloudy.5 mph51%29.98 "HgN/A
4:50 pm82 °FPartly sunny.7 mph62%29.95 "HgN/A
3:50 pm84 °FBroken clouds.8 mph55%29.95 "HgN/A
2:50 pm84 °FBroken clouds.9 mph55%29.95 "HgN/A
1:50 pm84 °FBroken clouds.10 mph55%29.98 "HgN/A
12:50 pm82 °FScattered clouds.15 mph66%30.01 "HgN/A
11:50 am81 °FPartly sunny.13 mph74%30.04 "HgN/A
10:50 am82 °FPartly sunny.12 mph70%30.07 "HgN/A
9:50 am82 °FScattered clouds.6 mph42%30.07 "HgN/A
8:50 am81 °FPassing clouds.2 mph42%30.07 "HgN/A
7:50 am73 °FPassing clouds.6 mph57%30.04 "HgN/A
6:50 am72 °FScattered clouds.5 mph61%30.04 "HgN/A
5:50 am73 °FClear.5 mph61%30.01 "Hg10 mi
4:50 am72 °FClear.1 mph65%29.98 "Hg10 mi
3:50 am72 °FClear.6 mph69%29.98 "Hg10 mi
2:50 am73 °FClear.3 mph65%29.98 "Hg10 mi
1:50 am73 °FClear.2 mph69%29.98 "Hg10 mi
12:50 am73 °FClear.3 mph65%29.98 "Hg10 mi
11:50 pm
Tue, Dec 6
75 °FClear.2 mph69%30.01 "Hg10 mi
10:50 pm75 °FPassing clouds.3 mph69%30.01 "HgN/A
Weather by CustomWeather, © 2016

See weather overviewHow to use our weather pages